Time,TemperatureF,DewpointF,PressureIn,WindDirection,WindDirectionDegrees,WindSpeedMPH,WindSpeedGustMPH,Humidity,HourlyPrecipIn,Conditions,Clouds,dailyrainin,SoftwareType,DateUTC
2013-10-13 00:09:00,39.8,33.0,30.15,SE,133,1.0,3.0,76,0.00,,,0.00,weatherlink.com 1.10,2013-10-13 06:09:00,
2013-10-13 00:24:00,39.6,33.0,30.14,East,82,1.0,2.0,76,0.00,,,0.00,weatherlink.com 1.10,2013-10-13 06:24:00,
2013-10-13 00:39:00,38.6,33.0,30.15,SE,146,0.0,1.0,79,0.00,,,0.00,weatherlink.com 1.10,2013-10-13 06:39:00,
2013-10-13 00:54:00,38.3,32.0,30.15,NNE,30,2.0,2.0,77,0.00,,,0.00,weatherlink.com 1.10,2013-10-13 06:54:00,
2013-10-13 01:09:00,38.9,32.0,30.16,NNE,15,0.0,2.0,75,0.00,,,0.00,weatherlink.com 1.10,2013-10-13 07:09:00,
2013-10-13 01:24:00,39.2,31.0,30.16,NE,37,2.0,3.0,73,0.00,,,0.00,weatherlink.com 1.10,2013-10-13 07:24:00,
2013-10-13 01:39:00,38.7,31.0,30.16,NE,41,0.0,2.0,75,0.00,,,0.00,weatherlink.com 1.10,2013-10-13 07:39:00,
2013-10-13 01:54:00,37.4,31.0,30.16,NE,44,0.0,1.0,77,0.00,,,0.00,weatherlink.com 1.10,2013-10-13 07:54:00,
2013-10-13 02:09:00,37.6,31.0,30.16,ENE,61,1.0,1.0,78,0.00,,,0.00,weatherlink.com 1.10,2013-10-13 08:09:00,
2013-10-13 02:24:00,36.8,31.0,30.16,ENE,60,3.0,3.0,79,0.00,,,0.00,weatherlink.com 1.10,2013-10-13 08:24:00,
2013-10-13 02:39:00,36.2,31.0,30.16,East,86,3.0,5.0,80,0.00,,,0.00,weatherlink.com 1.10,2013-10-13 08:39:00,
2013-10-13 02:54:00,35.7,30.0,30.15,ESE,112,0.0,3.0,81,0.00,,,0.00,weatherlink.com 1.10,2013-10-13 08:54:00,
2013-10-13 03:09:00,35.3,31.0,30.15,East,89,2.0,3.0,83,0.00,,,0.00,weatherlink.com 1.10,2013-10-13 09:09:00,
2013-10-13 03:24:00,35.3,31.0,30.15,East,82,1.0,2.0,83,0.00,,,0.00,weatherlink.com 1.10,2013-10-13 09:24:00,
2013-10-13 03:39:00,35.2,30.0,30.15,ENE,75,1.0,3.0,82,0.00,,,0.00,weatherlink.com 1.10,2013-10-13 09:39:00,
2013-10-13 03:54:00,35.3,31.0,30.15,ENE,75,2.0,2.0,84,0.00,,,0.00,weatherlink.com 1.10,2013-10-13 09:54:00,
2013-10-13 04:09:00,34.9,31.0,30.14,ENE,68,1.0,2.0,84,0.00,,,0.00,weatherlink.com 1.10,2013-10-13 10:09:00,
2013-10-13 04:25:00,34.2,31.0,30.15,ENE,69,0.0,1.0,86,0.00,,,0.00,weatherlink.com 1.10,2013-10-13 10:25:00,
2013-10-13 04:40:00,33.3,30.0,30.16,ENE,68,0.0,1.0,88,0.00,,,0.00,weatherlink.com 1.10,2013-10-13 10:40:00,
2013-10-13 04:55:00,32.4,30.0,30.16,West,267,1.0,1.0,90,0.00,,,0.00,weatherlink.com 1.10,2013-10-13 10:55:00,
2013-10-13 05:10:00,31.9,30.0,30.16,WSW,248,0.0,1.0,91,0.00,,,0.00,weatherlink.com 1.10,2013-10-13 11:10:00,
2013-10-13 05:25:00,31.6,29.0,30.16,West,276,0.0,0.0,91,0.00,,,0.00,weatherlink.com 1.10,2013-10-13 11:25:00,
2013-10-13 05:40:00,31.6,29.0,30.17,SE,141,1.0,1.0,91,0.00,,,0.00,weatherlink.com 1.10,2013-10-13 11:40:00,
2013-10-13 05:55:00,32.0,29.0,30.16,ESE,118,0.0,1.0,89,0.00,,,0.00,weatherlink.com 1.10,2013-10-13 11:55:00,
2013-10-13 06:10:00,31.4,29.0,30.17,SE,145,0.0,1.0,90,0.00,,,0.00,weatherlink.com 1.10,2013-10-13 12:10:00,
2013-10-13 06:25:00,31.2,29.0,30.17,SSW,202,0.0,1.0,90,0.00,,,0.00,weatherlink.com 1.10,2013-10-13 12:25:00,
2013-10-13 06:40:00,30.7,28.0,30.17,South,174,0.0,1.0,90,0.00,,,0.00,weatherlink.com 1.10,2013-10-13 12:40:00,
2013-10-13 06:55:00,30.3,28.0,30.17,South,174,0.0,0.0,91,0.00,,,0.00,weatherlink.com 1.10,2013-10-13 12:55:00,
2013-10-13 07:10:00,30.6,28.0,30.18,South,174,0.0,1.0,91,0.00,,,0.00,weatherlink.com 1.10,2013-10-13 13:10:00,
2013-10-13 07:25:00,30.6,28.0,30.18,South,174,0.0,0.0,91,0.00,,,0.00,weatherlink.com 1.10,2013-10-13 13:25:00,
2013-10-13 07:40:00,30.5,29.0,30.18,South,174,0.0,0.0,92,0.00,,,0.00,weatherlink.com 1.10,2013-10-13 13:40:00,
2013-10-13 07:55:00,30.9,29.0,30.18,SSE,157,0.0,0.0,92,0.00,,,0.00,weatherlink.com 1.10,2013-10-13 13:55:00,
2013-10-13 08:10:00,32.1,30.0,30.18,SSE,157,0.0,0.0,90,0.00,,,0.00,weatherlink.com 1.10,2013-10-13 14:10:00,
2013-10-13 08:25:00,34.5,31.0,30.17,ESE,121,0.0,0.0,87,0.00,,,0.00,weatherlink.com 1.10,2013-10-13 14:25:00,
2013-10-13 08:40:00,35.5,30.0,30.18,East,95,1.0,2.0,81,0.00,,,0.00,weatherlink.com 1.10,2013-10-13 14:40:00,
2013-10-13 08:55:00,36.1,31.0,30.18,East,79,2.0,2.0,82,0.00,,,0.00,weatherlink.com 1.10,2013-10-13 14:55:00,
2013-10-13 09:10:00,36.3,31.0,30.18,SE,130,1.0,4.0,82,0.00,,,0.00,weatherlink.com 1.10,2013-10-13 15:10:00,
2013-10-13 09:25:00,36.8,32.0,30.18,ESE,102,1.0,2.0,82,0.00,,,0.00,weatherlink.com 1.10,2013-10-13 15:25:00,
2013-10-13 09:40:00,37.5,32.0,30.18,East,80,2.0,3.0,80,0.00,,,0.00,weatherlink.com 1.10,2013-10-13 15:40:00,
2013-10-13 09:55:00,38.0,32.0,30.18,East,99,1.0,2.0,80,0.00,,,0.00,weatherlink.com 1.10,2013-10-13 15:55:00,
2013-10-13 10:10:00,38.4,32.0,30.18,East,86,1.0,4.0,78,0.00,,,0.00,weatherlink.com 1.10,2013-10-13 16:10:00,
2013-10-13 10:25:00,39.2,34.0,30.18,ENE,75,0.0,2.0,80,0.00,,,0.00,weatherlink.com 1.10,2013-10-13 16:25:00,
2013-10-13 10:40:00,40.3,34.0,30.17,ESE,123,1.0,2.0,78,0.00,,,0.00,weatherlink.com 1.10,2013-10-13 16:40:00,
2013-10-13 10:55:00,41.3,34.0,30.17,East,89,4.0,5.0,74,0.00,,,0.00,weatherlink.com 1.10,2013-10-13 16:55:00,
2013-10-13 11:10:00,43.4,35.0,30.16,East,94,3.0,5.0,71,0.00,,,0.00,weatherlink.com 1.10,2013-10-13 17:10:00,
2013-10-13 11:25:00,45.1,36.0,30.15,SE,141,0.0,7.0,70,0.00,,,0.00,weatherlink.com 1.10,2013-10-13 17:25:00,
2013-10-13 11:40:00,46.4,36.0,30.15,ESE,110,2.0,9.0,68,0.00,,,0.00,weatherlink.com 1.10,2013-10-13 17:40:00,
2013-10-13 11:55:00,47.6,35.0,30.15,ENE,68,4.0,7.0,63,0.00,,,0.00,weatherlink.com 1.10,2013-10-13 17:55:00,
2013-10-13 12:10:00,48.0,36.0,30.14,ESE,104,5.0,9.0,64,0.00,,,0.00,weatherlink.com 1.10,2013-10-13 18:10:00,
2013-10-13 12:25:00,48.0,36.0,30.14,NE,53,4.0,10.0,63,0.00,,,0.00,weatherlink.com 1.10,2013-10-13 18:25:00,
2013-10-13 12:40:00,48.3,36.0,30.14,NE,45,2.0,6.0,63,0.00,,,0.00,weatherlink.com 1.10,2013-10-13 18:40:00,
2013-10-13 12:55:00,48.3,37.0,30.13,East,87,4.0,7.0,64,0.00,,,0.00,weatherlink.com 1.10,2013-10-13 18:55:00,
2013-10-13 13:11:00,48.4,37.0,30.13,ENE,63,4.0,7.0,65,0.00,,,0.00,weatherlink.com 1.10,2013-10-13 19:11:00,
2013-10-13 13:26:00,48.9,37.0,30.12,ESE,116,3.0,8.0,64,0.00,,,0.00,weatherlink.com 1.10,2013-10-13 19:26:00,
2013-10-13 13:41:00,48.7,37.0,30.12,NNE,13,5.0,9.0,64,0.00,,,0.00,weatherlink.com 1.10,2013-10-13 19:41:00,
2013-10-13 13:56:00,48.6,38.0,30.12,East,82,4.0,7.0,66,0.00,,,0.00,weatherlink.com 1.10,2013-10-13 19:56:00,
2013-10-13 14:11:00,48.5,38.0,30.11,East,79,7.0,9.0,66,0.00,,,0.00,weatherlink.com 1.10,2013-10-13 20:11:00,
2013-10-13 14:26:00,48.3,37.0,30.11,ENE,68,2.0,7.0,66,0.00,,,0.00,weatherlink.com 1.10,2013-10-13 20:26:00,
2013-10-13 14:41:00,48.1,38.0,30.10,ENE,70,5.0,7.0,68,0.00,,,0.00,weatherlink.com 1.10,2013-10-13 20:41:00,
2013-10-13 14:56:00,47.3,40.0,30.10,ENE,72,1.0,4.0,75,0.00,,,0.00,weatherlink.com 1.10,2013-10-13 20:56:00,
2013-10-13 15:11:00,46.8,40.0,30.10,ENE,68,1.0,2.0,78,0.01,,,0.01,weatherlink.com 1.10,2013-10-13 21:11:00,
2013-10-13 15:26:00,46.5,42.0,30.10,NE,50,0.0,2.0,83,0.03,,,0.03,weatherlink.com 1.10,2013-10-13 21:26:00,
2013-10-13 15:41:00,46.4,43.0,30.10,NE,50,0.0,0.0,86,0.04,,,0.04,weatherlink.com 1.10,2013-10-13 21:41:00,
2013-10-13 15:56:00,46.1,43.0,30.10,NE,50,0.0,0.0,87,0.09,,,0.09,weatherlink.com 1.10,2013-10-13 21:56:00,
2013-10-13 16:11:00,45.6,43.0,30.10,NE,50,0.0,1.0,89,0.12,,,0.13,weatherlink.com 1.10,2013-10-13 22:11:00,
2013-10-13 16:26:00,45.1,43.0,30.11,WSW,240,0.0,1.0,91,0.12,,,0.15,weatherlink.com 1.10,2013-10-13 22:26:00,
2013-10-13 16:41:00,44.9,43.0,30.11,WSW,240,0.0,2.0,91,0.13,,,0.17,weatherlink.com 1.10,2013-10-13 22:41:00,
2013-10-13 16:56:00,44.8,43.0,30.11,SW,234,0.0,1.0,93,0.10,,,0.19,weatherlink.com 1.10,2013-10-13 22:56:00,
2013-10-13 17:11:00,44.6,43.0,30.11,West,265,0.0,2.0,93,0.09,,,0.22,weatherlink.com 1.10,2013-10-13 23:11:00,
2013-10-13 17:26:00,44.5,43.0,30.11,WNW,297,2.0,2.0,94,0.09,,,0.24,weatherlink.com 1.10,2013-10-13 23:26:00,
2013-10-13 17:41:00,44.4,43.0,30.11,West,271,0.0,1.0,94,0.09,,,0.26,weatherlink.com 1.10,2013-10-13 23:41:00,
2013-10-13 17:56:00,44.4,43.0,30.12,SW,217,1.0,1.0,94,0.08,,,0.27,weatherlink.com 1.10,2013-10-13 23:56:00,
2013-10-13 18:11:00,44.2,43.0,30.12,East,87,0.0,1.0,95,0.07,,,0.29,weatherlink.com 1.10,2013-10-14 00:11:00,
2013-10-13 18:26:00,44.3,43.0,30.13,ENE,70,1.0,2.0,94,0.08,,,0.32,weatherlink.com 1.10,2013-10-14 00:26:00,
2013-10-13 18:41:00,44.3,43.0,30.14,ENE,78,0.0,2.0,94,0.07,,,0.33,weatherlink.com 1.10,2013-10-14 00:41:00,
2013-10-13 18:56:00,44.1,43.0,30.14,East,79,3.0,3.0,94,0.07,,,0.34,weatherlink.com 1.10,2013-10-14 00:56:00,
2013-10-13 19:11:00,44.0,43.0,30.15,ENE,60,3.0,4.0,95,0.07,,,0.36,weatherlink.com 1.10,2013-10-14 01:11:00,
2013-10-13 19:26:00,44.2,43.0,30.14,NE,49,5.0,10.0,95,0.05,,,0.37,weatherlink.com 1.10,2013-10-14 01:26:00,
2013-10-13 19:41:00,44.3,43.0,30.15,NE,55,2.0,11.0,94,0.04,,,0.37,weatherlink.com 1.10,2013-10-14 01:41:00,
2013-10-13 19:56:00,44.2,43.0,30.15,NE,50,7.0,11.0,94,0.04,,,0.38,weatherlink.com 1.10,2013-10-14 01:56:00,
2013-10-13 20:11:00,44.0,42.0,30.15,ENE,65,7.0,13.0,93,0.02,,,0.38,weatherlink.com 1.10,2013-10-14 02:11:00,
2013-10-13 20:26:00,43.9,42.0,30.16,ENE,68,6.0,12.0,93,0.01,,,0.38,weatherlink.com 1.10,2013-10-14 02:26:00,
2013-10-13 20:41:00,43.8,42.0,30.16,NE,51,5.0,11.0,93,0.02,,,0.39,weatherlink.com 1.10,2013-10-14 02:41:00,
2013-10-13 20:56:00,43.7,42.0,30.16,NE,54,4.0,13.0,94,0.01,,,0.39,weatherlink.com 1.10,2013-10-14 02:56:00,
2013-10-13 21:11:00,43.6,42.0,30.16,ENE,66,12.0,12.0,94,0.02,,,0.40,weatherlink.com 1.10,2013-10-14 03:11:00,
2013-10-13 21:26:00,43.5,42.0,30.16,ENE,57,7.0,13.0,94,0.02,,,0.40,weatherlink.com 1.10,2013-10-14 03:26:00,
2013-10-13 21:41:00,43.5,42.0,30.16,NE,37,9.0,16.0,93,0.01,,,0.40,weatherlink.com 1.10,2013-10-14 03:41:00,
2013-10-13 21:56:00,43.4,42.0,30.16,ENE,65,5.0,15.0,94,0.01,,,0.40,weatherlink.com 1.10,2013-10-14 03:56:00,
2013-10-13 22:11:00,43.3,42.0,30.16,ENE,67,6.0,11.0,94,0.00,,,0.40,weatherlink.com 1.10,2013-10-14 04:11:00,
2013-10-13 22:26:00,42.9,41.0,30.16,NE,37,8.0,12.0,94,0.00,,,0.40,weatherlink.com 1.10,2013-10-14 04:26:00,
2013-10-13 22:41:00,42.6,41.0,30.16,ENE,61,7.0,13.0,94,0.01,,,0.41,weatherlink.com 1.10,2013-10-14 04:41:00,
2013-10-13 22:56:00,42.4,41.0,30.16,NE,42,9.0,15.0,93,0.01,,,0.41,weatherlink.com 1.10,2013-10-14 04:56:00,
2013-10-13 23:11:00,42.2,40.0,30.16,NE,45,4.0,14.0,93,0.01,,,0.41,weatherlink.com 1.10,2013-10-14 05:11:00,
2013-10-13 23:26:00,41.9,40.0,30.16,ENE,58,7.0,13.0,92,0.01,,,0.41,weatherlink.com 1.10,2013-10-14 05:26:00,
2013-10-13 23:41:00,41.7,40.0,30.16,NE,41,6.0,16.0,92,0.00,,,0.41,weatherlink.com 1.10,2013-10-14 05:41:00,
2013-10-13 23:56:00,41.6,40.0,30.16,ENE,64,4.0,16.0,92,0.00,,,0.41,weatherlink.com 1.10,2013-10-14 05:56:00,